DW3649 Weather Reports


Display with metric or nautical units.
time (UTC)temp
F
wind
direction
speed
MPH
gust
MPH
rain 1hr
in
rain 24hr
in
rain mn
in
humidity
%
barometer
mb
20260510034544 63 66 0.0 0.0 0.00 0.00 0.00 68 1013.0
20260510033039 63 66 0.0 0.0 0.00 0.00 0.00 68 1012.9
20260510031546 63 66 0.0 0.0 0.00 0.00 0.00 68 1012.9
20260510030043 63 66 0.0 0.0 0.00 0.00 0.00 67 1012.9
20260510024546 63 66 0.0 0.0 0.00 0.00 0.00 68 1012.7
20260510023036 64 66 0.0 0.0 0.00 0.00 0.00 67 1012.7
20260510021538 64 66 0.0 0.0 0.00 0.00 0.00 67 1012.7
20260510020035 64 66 0.0 0.0 0.00 0.00 0.00 67 1012.7
20260510014533 64 66 0.0 0.0 0.00 0.00 0.00 67 1012.6
20260510013032 64 66 0.0 0.0 0.00 0.00 0.00 66 1012.7
20260510011533 65 66 0.0 0.0 0.00 0.00 0.00 66 1012.6
20260510010030 65 66 0.0 0.0 0.00 0.00 0.00 65 1012.6
20260510004531 65 66 0.0 0.0 0.00 0.00 0.00 65 1012.6
20260510003044 65 66 0.0 0.0 0.00 0.00 0.00 65 1012.5
20260510001528 65 66 0.0 0.0 0.00 0.00 0.00 64 1012.6
20260510000029 65 66 0.0 0.0 0.00 0.00 0.00 64 1012.7
20260509234535 65 66 0.0 0.0 0.00 0.00 0.00 64 1012.8
20260509233035 65 66 0.0 0.0 0.00 0.00 0.00 63 1012.9
20260509231525 66 66 0.0 0.0 0.00 0.00 0.00 62 1012.8
20260509230022 66 66 0.0 0.0 0.00 0.00 0.00 62 1012.9
20260509224524 66 66 0.0 0.0 0.00 0.00 0.00 62 1013.0
20260509223019 66 66 0.0 0.0 0.00 0.00 0.00 62 1013.1
20260509221519 66 66 0.0 0.0 0.00 0.00 0.00 63 1013.2
20260509220025 66 66 0.0 0.0 0.00 0.00 0.00 63 1013.2
20260509214518 66 66 0.0 0.0 0.00 0.00 0.00 63 1013.2
20260509213016 66 66 0.0 0.0 0.00 0.00 0.00 64 1013.1
20260509211515 66 66 0.0 0.0 0.00 0.00 0.00 64 1013.1
20260509210014 66 66 0.0 0.0 0.00 0.00 0.00 63 1013.0
20260509204512 66 62 0.0 0.0 0.00 0.00 0.00 63 1013.0
20260509203012 66 62 0.0 0.0 0.00 0.00 0.00 63 1013.0
20260509201514 66 67 0.0 0.0 0.00 0.00 0.00 63 1012.8
20260509200011 66 67 1.0 0.0 0.00 0.00 0.00 63 1012.7
20260509194510 67 118 0.0 0.0 0.00 0.00 0.00 63 1012.7
20260509193011 67 118 0.0 0.0 0.00 0.00 0.00 63 1012.9
20260509191512 67 118 0.0 0.0 0.00 0.00 0.00 64 1012.7
20260509190017 67 118 1.0 0.0 0.00 0.00 0.00 64 1012.7
20260509184520 67 172 0.0 0.0 0.00 0.00 0.00 64 1012.7
20260509183009 67 172 1.0 0.0 0.00 0.00 0.00 64 1012.6
20260509181508 67 172 2.0 0.0 0.00 0.00 0.00 63 1012.4
20260509180015 67 172 2.0 0.0 0.00 0.00 0.00 62 1012.2
20260509174507 68 171 3.0 0.0 0.00 0.00 0.00 61 1012.0
20260509173011 68 168 3.0 0.0 0.00 0.00 0.00 59 1011.9
20260509171512 69 167 4.0 0.0 0.00 0.00 0.00 56 1011.8
20260509170006 70 165 3.0 0.0 0.00 0.00 0.00 53 1011.6
20260509164505 70 163 3.0 0.0 0.00 0.00 0.00 52 1011.5
20260509163004 70 204 5.0 0.0 0.00 0.00 0.00 51 1011.5
20260509161509 71 155 4.0 0.0 0.00 0.00 0.00 48 1011.3
20260509160004 72 165 5.0 0.0 0.00 0.00 0.00 45 1011.3
20260509154503 72 170 5.0 0.0 0.00 0.00 0.00 45 1011.2
20260509153002 72 167 6.0 0.0 0.00 0.00 0.00 44 1011.1
20260509151501 72 191 8.0 0.0 0.00 0.00 0.00 42 1011.1
20260509150112 73 173 8.0 0.0 0.00 0.00 0.00 42 1011.3
20260509144603 73 161 7.0 0.0 0.00 0.00 0.00 39 1011.2
20260509143107 73 132 8.0 0.0 0.00 0.00 0.00 38 1011.3
20260509141558 73 192 8.0 0.0 0.00 0.00 0.00 37 1011.3
20260509140105 73 162 9.0 0.0 0.00 0.00 0.00 35 1011.5
20260509134556 74 135 9.0 0.0 0.00 0.00 0.00 34 1011.4
20260509133101 74 157 9.0 0.0 0.00 0.00 0.00 32 1011.4
20260509131554 74 153 9.0 0.0 0.00 0.00 0.00 33 1011.6
20260509130056 74 142 8.0 0.0 0.00 0.00 0.00 35 1011.6
20260509124556 73 126 12.0 0.0 0.00 0.00 0.00 35 1012.0
20260509123058 74 145 10.0 0.0 0.00 0.00 0.00 38 1012.1
20260509121557 73 202 11.0 0.0 0.00 0.00 0.00 39 1012.2
20260509120048 73 152 9.0 0.0 0.00 0.00 0.00 40 1012.3
20260509114558 73 163 10.0 0.0 0.00 0.00 0.00 39 1012.2
20260509113045 73 137 10.0 0.0 0.00 0.00 0.00 40 1012.4
20260509111544 72 123 11.0 0.0 0.00 0.00 0.00 41 1012.5
20260509110043 73 181 9.0 0.0 0.00 0.00 0.00 40 1012.6
20260509104542 73 172 11.0 0.0 0.00 0.00 0.00 43 1012.5
20260509103040 72 141 11.0 0.0 0.00 0.00 0.00 44 1012.7
20260509101540 72 116 8.0 0.0 0.00 0.00 0.00 45 1012.9
20260509100038 73 115 9.0 0.0 0.00 0.00 0.00 43 1013.1
20260509094545 73 158 7.0 0.0 0.00 0.00 0.00 38 1013.3
20260509093037 73 136 6.0 0.0 0.00 0.00 0.00 36 1013.4
20260509091540 74 214 6.0 0.0 0.00 0.00 0.00 36 1013.2
20260509090054 73 200 6.0 0.0 0.00 0.00 0.00 38 1013.4
20260509084534 72 169 6.0 0.0 0.00 0.00 0.00 43 1013.5
20260509083045 73 190 5.0 0.0 0.00 0.00 0.00 42 1013.6
20260509081530 72 141 5.0 0.0 0.00 0.00 0.00 42 1013.5
20260509080032 72 149 5.0 0.0 0.00 0.00 0.00 43 1013.3
20260509074533 71 165 4.0 0.0 0.00 0.00 0.00 49 1013.3
20260509073023 71 151 3.0 0.0 0.00 0.00 0.00 49 1013.4
20260509071523 70 159 3.0 0.0 0.00 0.00 0.00 52 1013.5
20260509070019 69 177 2.0 0.0 0.00 0.00 0.00 54 1013.5
20260509064518 69 191 3.0 0.0 0.00 0.00 0.00 55 1013.4
20260509063015 68 261 3.0 0.0 0.00 0.00 0.00 56 1013.3
20260509061512 67 124 2.0 0.0 0.00 0.00 0.00 60 1013.3
20260509060013 66 123 1.0 0.0 0.00 0.00 0.00 64 1013.4
20260509054510 65 76 1.0 0.0 0.00 0.00 0.00 69 1013.3
20260509053020 64 71 1.0 0.0 0.00 0.00 0.00 68 1013.5
20260509051511 64 71 0.0 0.0 0.00 0.00 0.00 70 1013.6
20260509050032 64 71 0.0 0.0 0.00 0.00 0.00 70 1013.7
20260509044508 64 71 0.0 0.0 0.00 0.00 0.00 70 1013.8
20260509043009 64 71 0.0 0.0 0.00 0.00 0.00 69 1013.7
20260509041508 64 71 0.0 0.0 0.00 0.00 0.00 69 1013.6
20260509040008 64 71 0.0 0.0 0.00 0.00 0.00 68 1013.7